XMM-NEWTON 1 25989U 99066A 21112.68016265 -.00000009 00000-0 00000+0 0 9993 2 25989 70.8811 313.3219 6667221 90.9182 359.7827 0.50134086 27930 ARIANE 5 R/B 1 25990U 99066B 21109.97914815 -.00000092 00000-0 00000-0 0 9994 2 25990 62.1967 10.5023 8485730 98.1384 352.0754 0.55296355 14941